DW0805 Ramloese DK current weather conditions

sailwx.info

Wind from 128 at 0 knots gusting 2

Air temperature 5.0° C
Dewpoint 3.0° C

Last reported at 2018-Nov-17 16:05 UTC.
Time now 2018-Nov-17 17:00 UTC

Location: N 56°01' E 012°05'.
View on Google Maps.

See reports from other nearby stations

  
Tides and Currents Weather Stations Pressure Air Temp Water Temp Dewpoint Dewpoint Depression Visibility Wind Speed Wind Dir Waves Ship Positions
date/time (UTC)wind fromknots sea level pressurealtimeterstation pressurevisibilityair tempwater tempwave heightnotes
2018-Nov-17 16:05 128 0 gusting 2 5.0
2018-Nov-17 15:35 129 1 gusting 2 5.6
2018-Nov-17 15:25 128 1 gusting 2 5.6
2018-Nov-17 15:05 129 1 gusting 5 5.6
2018-Nov-17 14:55 128 0 gusting 2 5.6
2018-Nov-17 14:45 128 6.1
2018-Nov-17 14:35 129 0 gusting 2 6.1
2018-Nov-17 14:25 129 6.7
2018-Nov-17 14:15 129 1 gusting 2 6.7
2018-Nov-17 14:05 127 2 gusting 5 6.7
2018-Nov-17 13:55 128 1 gusting 7 7.2
2018-Nov-17 13:45 128 4 gusting 6 7.2
2018-Nov-17 13:35 152 1 gusting 6 7.8
2018-Nov-17 13:25 169 0 gusting 5 7.8
2018-Nov-17 12:55 149 1 gusting 5 7.8
2018-Nov-17 11:15 148 1 gusting 6 7.8
2018-Nov-17 11:05 152 2 gusting 6 7.8
2018-Nov-17 10:55 179 4 gusting 7 7.8
2018-Nov-17 10:45 265 6 gusting 8 7.8
2018-Nov-17 10:35 283 6 gusting 10 7.2
2018-Nov-17 10:15 180 4 gusting 8 6.7
2018-Nov-17 10:05 288 3 gusting 7 6.7
2018-Nov-17 09:55 181 4 gusting 7 6.7
2018-Nov-17 09:45 169 2 gusting 7 6.1
2018-Nov-17 09:35 186 5 gusting 7 6.1
2018-Nov-17 09:05 186 4 gusting 7 6.1
2018-Nov-17 08:55 188 4 gusting 7 6.1
2018-Nov-17 08:45 165 2 gusting 8 6.1
2018-Nov-17 08:35 200 4 gusting 7 6.1
2018-Nov-17 08:25 201 5 gusting 7 6.1
2018-Nov-17 07:45 184 3 gusting 7 6.1
2018-Nov-17 07:25 173 4 gusting 7 6.1
2018-Nov-17 06:55 182 4 gusting 8 6.1
2018-Nov-17 06:45 138 5 gusting 7 6.1
2018-Nov-17 06:35 147 2 gusting 7 6.1
2018-Nov-17 06:25 143 2 gusting 6 6.1
2018-Nov-17 06:15 163 1 gusting 6 6.1
2018-Nov-17 05:05 141 5 gusting 10 6.1
2018-Nov-17 04:55 157 1 gusting 7 6.1
2018-Nov-17 04:45 182 3 gusting 7 6.1
2018-Nov-17 04:35 150 4 gusting 7 6.1
2018-Nov-17 04:15 177 1 gusting 5 6.7
2018-Nov-17 04:05 184 4 gusting 7 6.7
2018-Nov-17 03:55 188 4 gusting 7 6.7
2018-Nov-17 03:15 197 5 gusting 8 6.7
2018-Nov-17 03:05 182 6 gusting 8 6.7
2018-Nov-17 02:35 185 6 gusting 11 6.7
2018-Nov-17 01:55 177 2 gusting 5 6.7
2018-Nov-17 01:45 177 2 gusting 5 6.7
2018-Nov-17 01:35 174 2 gusting 6 6.1
2018-Nov-17 01:25 171 1 gusting 5 6.1
2018-Nov-17 01:15 159 0 gusting 2 5.6
2018-Nov-17 00:55 160 5.0
2018-Nov-17 00:35 159 5.0
2018-Nov-16 23:35 161 1 gusting 4 5.6
2018-Nov-16 23:05 163 1 gusting 4 6.1
2018-Nov-16 22:55 177 1 gusting 5 5.6
2018-Nov-16 22:25 150 1 gusting 4 5.6
2018-Nov-16 21:55 156 2 gusting 6 5.6
2018-Nov-16 21:35 148 3 gusting 6 5.6
2018-Nov-16 21:25 147 2 gusting 6 6.1
2018-Nov-16 21:05 155 4 gusting 7 6.1
2018-Nov-16 20:55 146 5 gusting 7 6.1
2018-Nov-16 20:45 149 4 gusting 8 6.1
2018-Nov-16 20:35 147 4 gusting 7 6.1
2018-Nov-16 20:05 148 4 gusting 8 6.1
2018-Nov-16 19:45 142 2 gusting 6 6.1
2018-Nov-16 19:25 146 4 gusting 6 6.1
2018-Nov-16 19:05 151 3 gusting 7 6.1
2018-Nov-16 18:25 147 5 gusting 7 6.1
2018-Nov-16 18:15 133 3 gusting 7 6.1
2018-Nov-16 17:35 146 5 gusting 7 6.1
2018-Nov-16 17:15 139 4 gusting 7 6.1
2018-Nov-16 17:05 139 4 gusting 6 6.1
2018-Nov-16 16:55 143 2 gusting 6 6.7
2018-Nov-16 16:45 146 4 gusting 6 7.2
2018-Nov-16 16:35 151 4 gusting 6 7.2
2018-Nov-16 16:25 160 2 gusting 7 7.2
2018-Nov-16 16:15 160 3 gusting 8 7.2
2018-Nov-16 16:05 163 4 gusting 7 7.2
2018-Nov-16 15:55 152 4 gusting 7 7.2
2018-Nov-16 15:45 149 2 gusting 5 7.2
2018-Nov-16 15:35 150 2 gusting 6 7.8
2018-Nov-16 15:25 158 2 gusting 6 7.8
2018-Nov-16 15:15 158 3 gusting 6 7.8
2018-Nov-16 15:05 156 2 gusting 6 8.3
2018-Nov-16 14:55 170 4 gusting 8 8.3
2018-Nov-16 14:25 169 6 gusting 10 8.9
2018-Nov-16 14:15 178 6 gusting 10 8.9
2018-Nov-16 14:05 180 6 gusting 11 8.9
2018-Nov-16 13:55 269 6 gusting 13 9.4
2018-Nov-16 13:35 184 6 gusting 11 9.4
2018-Nov-16 13:25 186 6 gusting 12 10.0
2018-Nov-16 13:15 185 6 gusting 11 10.0
2018-Nov-16 13:05 178 8 gusting 13 10.0
2018-Nov-16 12:55 175 9 gusting 13 10.0
2018-Nov-16 12:45 177 8 gusting 15 10.0
2018-Nov-16 12:05 177 8 gusting 13 10.6
2018-Nov-16 11:45 261 11 gusting 15 10.0
2018-Nov-16 11:35 185 8 gusting 14 10.0
2018-Nov-16 11:25 257 8 gusting 13 10.0
2018-Nov-16 11:05 269 12 gusting 15 10.0
2018-Nov-16 10:55 289 9 gusting 14 10.0
2018-Nov-16 10:45 190 8 gusting 13 10.0
2018-Nov-16 10:25 176 8 gusting 13 10.0
2018-Nov-16 10:15 189 9 gusting 15 10.0
2018-Nov-16 10:05 191 8 gusting 13 10.0
2018-Nov-16 09:45 183 8 gusting 13 10.0
2018-Nov-16 09:25 177 6 gusting 12 10.0
2018-Nov-16 09:15 172 6 gusting 10 9.4
2018-Nov-16 08:55 167 4 gusting 7 8.9
2018-Nov-16 08:45 166 3 gusting 7 8.9
2018-Nov-16 08:25 248 4 gusting 6 8.3
2018-Nov-16 08:15 155 4 gusting 7 7.8
2018-Nov-16 07:55 153 3 gusting 7 7.2
2018-Nov-16 07:35 152 3 gusting 7 7.2
2018-Nov-16 07:25 155 3 gusting 7 6.7
2018-Nov-16 07:15 162 3 gusting 7 6.7
2018-Nov-16 07:05 137 5 gusting 8 6.7
2018-Nov-16 06:55 141 4 gusting 8 6.7
2018-Nov-16 06:25 144 4 gusting 7 6.7
2018-Nov-16 06:15 152 4 gusting 7 6.7
2018-Nov-16 06:05 156 4 gusting 6 6.7
2018-Nov-16 05:25 145 5 gusting 7 7.2
2018-Nov-16 05:15 153 4 gusting 7 7.2
2018-Nov-16 04:55 165 3 gusting 8 7.2
2018-Nov-16 04:45 155 2 gusting 7 7.2
2018-Nov-16 04:35 166 3 gusting 6 7.2
2018-Nov-16 04:15 181 6 gusting 11 7.8
2018-Nov-16 03:55 183 6 gusting 11 7.8
2018-Nov-16 03:45 183 7 gusting 11 7.8
2018-Nov-16 03:15 181 7 gusting 11 7.8
2018-Nov-16 03:05 182 6 gusting 12 7.8
2018-Nov-16 02:45 179 6 gusting 11 7.8
2018-Nov-16 02:35 177 6 gusting 12 7.8
2018-Nov-16 02:25 182 5 gusting 10 7.2
2018-Nov-16 02:05 175 5 gusting 7 7.2
2018-Nov-16 01:55 162 4 gusting 8 7.2
2018-Nov-16 01:45 159 4 gusting 8 7.2
2018-Nov-16 01:35 168 4 gusting 7 7.2
2018-Nov-16 01:25 170 4 gusting 8 7.2
2018-Nov-16 01:15 165 4 gusting 7 7.2
2018-Nov-16 01:05 157 5 gusting 7 7.2
2018-Nov-16 00:55 167 3 gusting 7 7.2
2018-Nov-16 00:45 173 4 gusting 6 7.2
2018-Nov-16 00:35 168 4 gusting 7 7.2
2018-Nov-16 00:25 169 4 gusting 8 7.2
2018-Nov-16 00:15 165 4 gusting 10 7.2
2018-Nov-16 00:05 161 4 gusting 7 7.8
2018-Nov-15 23:55 162 5 gusting 8 7.8
2018-Nov-15 23:45 155 4 gusting 8 7.8
2018-Nov-15 23:05 165 3 gusting 7 7.8
2018-Nov-15 22:55 165 2 gusting 6 7.8
2018-Nov-15 22:45 163 2 gusting 6 7.8
2018-Nov-15 22:35 173 3 gusting 6 7.8
2018-Nov-15 22:15 150 2 gusting 7 8.3
2018-Nov-15 21:45 171 4 gusting 7 8.3
2018-Nov-15 21:35 166 2 gusting 8 8.3
2018-Nov-15 21:15 176 5 gusting 8 8.3
2018-Nov-15 21:05 181 6 gusting 11 8.3
2018-Nov-15 20:55 174 4 gusting 8 7.8
2018-Nov-15 20:45 154 4 gusting 7 7.8
2018-Nov-15 20:35 159 2 gusting 7 7.8
2018-Nov-15 20:25 161 3 gusting 7 7.8
2018-Nov-15 20:15 157 3 gusting 7 7.8
2018-Nov-15 20:05 162 2 gusting 6 7.8
2018-Nov-15 19:45 163 2 gusting 7 7.8
2018-Nov-15 19:35 164 2 gusting 7 7.8
2018-Nov-15 19:25 161 4 gusting 7 7.8
2018-Nov-15 19:15 153 2 gusting 7 7.8
2018-Nov-15 19:05 167 2 gusting 7 7.8
2018-Nov-15 18:55 162 2 gusting 6 7.8
2018-Nov-15 18:45 162 1 gusting 6 7.8
2018-Nov-15 18:35 173 3 gusting 6 7.8
2018-Nov-15 18:25 157 3 gusting 6 7.8
2018-Nov-15 18:15 155 2 gusting 7 8.3
2018-Nov-15 18:05 162 1 gusting 6 8.3
2018-Nov-15 17:55 152 2 gusting 7 8.3
2018-Nov-15 17:45 153 4 gusting 6 8.3
2018-Nov-15 17:25 163 2 gusting 6 8.3
2018-Nov-15 17:15 163 2 gusting 6 8.3
2018-Nov-15 17:05 144 4 gusting 6 8.9